Погода в Симферополе

Погода в Симферополе : погода сейчас, прогноз погоды и архив. Всё, что Вы хотите узнать о погоде в Симферополе!

Хотите узнать прогноз погоды в Симферополе? Тогда Вам сюда: Погода в Симферополе

Поиск расширенной информации на нашем сайте:

Другие новости

Новости СМИ2

Главная страница сайта

Новости сайта

03.07.2017

Напоминаем, что на нашем специализированном сайте Метеоцентр.Азия вы можете получить высокодетализированные автоматические прогнозы погоды по пунктам России, СНГ и мира в авиационном формате (включающие направление и скорость ветра, видимость, явления погоды, количество и форму облачности, нижнюю и верхнюю границу облачности).


Погода в Симферополе - сегодня

Время (UTC), дата Ветер
(°,м/с) 
Видим.   Явления Облачность Т
(°С)
Тd
(°С)
f(%) Тe
(°С)
Pmin
(гПа)
dP
(гПа)
Po
(мм)
O2
(г/м3)
Тmin Tmax R s Состояние
почвы
00 14.10.18 080 (В) 8-12{14}  10 км    ясно 
+10.6 +1.7 54 +9  1025.8  -0.1  753  292           
03 14.10.18 080 (В) 9-12  10 км    ясно 
+10.9 +3.4 60 +9  1025.4  -0.4  753  291  +10.1         
06 14.10.18 070 (В) 10-14{14}  10 км    ясно 
+14.1 +6 58 +13  1025.6  0.5  753  288  +10.1         
09 14.10.18 070 (В) 12-16{16}  10 км    ясно 
+19.4 +6.2 42 +19  1025.1  -0.1  753  282           
12 14.10.18 060 (СВ) 12-15{17}  10 км    3/0 верхняя 
[Ci fib]
+20.6 +4.6 35 +21  1023.8  -1.2  752  281           
15 14.10.18 070 (В) 7-12{16}  10 км    3/0 верхняя 
[Ci fib]
+16 +5 48 +15  1024.8  0.6  752  286           
18 14.10.18 060 (СВ) 6{10}  10 км    ясно 
+12.6 +3.8 55 +12  1025.3  0.2  753  289    +21       
00 15.10.18 090 (В) 10 км    ясно 
+10 +4.4 68 +9  1025  -0.7  752  292           
03 15.10.18 090 (В) 10 км    ясно 
+9 +3.2 67 +7  1024.8  -0.3  752  293  +8.8         
06 15.10.18 100 (В) 10 км    6/0 верхняя 
[Ci fib]
+16.1 +4.5 46 +16  1024.3  752  285  +8.4         
09 15.10.18 070 (В) 10-14{15}  10 км    6/0 верхняя 
[Ci sp]
+20.8 +5.2 36 +21  1023.7  -0.2  752  281           
12 15.10.18 070 (В) 9-12{14}  10 км    3/0 верхняя 
[Ci sp]
+22.2 +7.6 39 +22  1022.6  -1  751  279           
15 15.10.18 070 (В) 8-12{13}  10 км    4/0 верхняя 
[Ci fib]
+17.3 +7.9 54 +17  1023.3  0.4  751  283           
18 15.10.18 070 (В) 7{12}  10 км    ясно 
+13.2 +8.1 71 +12  1024.1  0.4  752  288    +23.1       
21 15.10.18 070 (В) 10 км    ясно 
+14.1 +6.5 60 +13  1023.5  -0.5  751  287           
00 16.10.18 060 (СВ) 10 км    ясно 
+11.3 +6.6 73 +11  1023.2  -0.5  751  289           
03 16.10.18 060 (СВ) 10 км    ясно 
+10.7 +8.3 85 +9  1023.1  -0.1  751  290  +10.1         
06 16.10.18 070 (В) 9-12{12}  10 км    ясно 
+15.9 +11.1 73 +18  1022.4  -0.3  751  284  +10.1         
09 16.10.18 070 (В) 11-13{14}  10 км    ясно 
+23 +6.7 35 +23  1021.5  -0.4  750  278           
15 16.10.18 060 (СВ) 8-12{14}  10 км    ясно 
+18.2 +11 63 +20  1021.7  0.4  750  281           
18 16.10.18 070 (В) 6{12}  10 км    ясно 
+14.2 +11.4 83 +16  1022.7  0.7  751  285    +25.5       
00 17.10.18 080 (В) 10 км    ясно 
+13.1 +9.7 80 +13  1021.5  -0.6  750  287           
03 17.10.18 060 (СВ) 10 км    ясно 
+12 +10.7 92 +13  1021  -0.6  749  287  +11.1         
06 17.10.18 060 (СВ) 7{10}  10 км    ясно 
+14.9 +11.5 80 +17  1020.6  -0.1  749  284  +11.1         
09 17.10.18 060 (СВ) 10-13{13}  10 км    ясно 
+21.4 +11.7 54 +25  1019.4  -0.7  749  278           
Время (UTC), дата Ветер
(°,м/с) 
Видим.   Явления Облачность Т
(°С)
Тd
(°С)
f(%) Тe
(°С)
Pmin
(гПа)
dP
(гПа)
Po
(мм)
O2
(г/м3)
Тmin Tmax R s Состояние
почвы

Для получения пояснительной информации подведите курсор к названию столбца.

ПОГОДА в Симферополе - архив

Всё, что Вы хотите узнать о погоде в Симферополе - удобно и подробно!

Выберите нужную дату (начиная с 1 января 2015* года) и нажмите кнопку "Найти".
Будут отображены архивные сводки погоды по пункту Симферополь, начиная с указанной даты.


Отображать данные в формате CSV (для использования в таблицах Excel)


Внимание! Наш архив погоды предназначен исключительно для личного некоммерческого использования в познавательных целях. Если Вам необходимы официальные справки о состоянии погоды (для производственных, юридических, коммерческих и т.п. целей), обращайтесь в органы Росгидромета.

*Примечание: данная дата относится к архиву по метеостанциям СССР (Россия, СНГ, Балтия).
Архив по метеостанциям Зарубежной Европы и Азии (кроме Китая) хранится 10 дней, по другим регионам земного шара (Китай, Африка, Америка, Австралия, Океания) - 1 день.

Симферополь - район местоположения метеостанции


Название, широта, долгота, высота метеостанции:
Симферополь 44.7°ш. 34.1°д. 181 м над ур. моря [Российская Федерация]

Дополнительная информация

В oтличие oт бoльшинства пoгoдных сайтoв мы публикуем пoдрoбную метеoинфoрмацию в детальнoм прoфессиoнальнoм фoрмате.

Характеристики температуры и влажнoсти вoздуха измеряются на высoте 2 м в тени вдали oт зданий и деревьев.
Скoрoсть ветра измеряется на высoте 10 м (на урoвне рoста челoвека скoрoсть ветра ниже в 1.5-2 раза). Если метеoстанция нахoдится в гoрoде или в лесу, тo скoрoсть ветра занижена на 2-4 м/с пo сравнению с oткрытым местoм. Скoрoсть ветра над акватoриями крупных рек и oзёр, а также на вершинах хoлмoв на 2-5 м/с выше, чем в oбычных услoвиях.
Атмoсфернoе давление в разных тoчках местнoсти мoжет значительнo oтличаться oт давления на метеoстанции, в зависимoсти oт услoвий рельефа (при пoдъёме на 10 м давление пoнижается примернo на 1 мм рт.ст.).